Point Pleasant, WV

3:23 PM EDT on July 22, 2017 (GMT -0400)
Point Pleasant

Weather History for K3I2 - November, 2012

Change the Weather History Date:

Monday, November 19, 2012

  Actual Average (KHTS) Record (KHTS)
Temperature  
Mean Temperature 40 °F -  
Max Temperature 55 °F 53 °F 78 °F (1985)
Min Temperature 26 °F 34 °F 12 °F (2014)
Degree Days  
Heating Degree Days 24    
Moisture  
Dew Point 29 °F    
Average Humidity 73    
Maximum Humidity 93    
Minimum Humidity 41    
Precipitation  
Precipitation 0.00 in - - ()
Sea Level Pressure  
Sea Level Pressure 30.33 in    
Wind  
Wind Speed 0 mph (North)    
Max Wind Speed 4 mph    
Max Gust Speed -    
Visibility 10 miles    
Events      
Averages and records for this station are not official NWS values.
T = Trace of Precipitation, MM = Missing Value Source: NWS Daily Summary

Daily Weather History Graph

Daily Weather History Graph

Search for Another Location

Airport or City:

Trip Planner

Search our weather history database for the weather conditions in past years. The results will help you decide how hot, cold, wet, or windy it might be!

Date:

Astronomy

Nov. 19, 2012 Rise Set
Actual Time 7:16 AM EST 5:11 PM EST
Civil Twilight 6:47 AM EST 5:40 PM EST
Nautical Twilight 6:14 AM EST 6:12 PM EST
Astronomical Twilight 5:43 AM EST 6:44 PM EST
Moon 12:19 PM EST (11/19) 11:35 PM EST (11/19)
Length of Visible Light 10h 53m
Length of Day
9h 55m
Waxing Crescent, 40% of the Moon is Illuminated
Nov 19
Waxing Crescent
Nov 20
First Quarter
Nov 28
Full
Dec 6
Last Quarter
Dec 13
New

Hourly Weather History & Observations

Time (EST) Temp. Windchill Dew Point Humidity Pressure Visibility Wind Dir Wind Speed Gust Speed Precip Events Conditions
12:15 AM 32.0 °F - 26.6 °F 80% 30.41 in 10.0 mi Calm Calm - N/A   Clear
12:55 AM 30.2 °F - 24.8 °F 80% 30.41 in 10.0 mi Calm Calm - N/A   Clear
1:15 AM 28.4 °F - 24.8 °F 86% 30.40 in 10.0 mi Calm Calm - N/A   Clear
1:35 AM 30.2 °F - 26.6 °F 86% 30.40 in 10.0 mi Calm Calm - N/A   Clear
1:55 AM 28.4 °F - 26.6 °F 93% 30.40 in 10.0 mi Calm Calm - N/A   Clear
2:15 AM 28.4 °F - 24.8 °F 86% 30.40 in 10.0 mi Calm Calm - N/A   Clear
2:35 AM 28.4 °F - 23.0 °F 80% 30.40 in 10.0 mi Calm Calm - N/A   Clear
2:55 AM 28.4 °F - 24.8 °F 86% 30.40 in 10.0 mi Calm Calm - N/A   Clear
3:15 AM 28.4 °F - 24.8 °F 86% 30.39 in 10.0 mi Calm Calm - N/A   Clear
3:35 AM 26.6 °F - 23.0 °F 86% 30.38 in 10.0 mi Calm Calm - N/A   Clear
3:55 AM 28.4 °F - 24.8 °F 86% 30.38 in 10.0 mi Calm Calm - N/A   Clear
4:15 AM 28.4 °F - 24.8 °F 86% 30.38 in 10.0 mi Calm Calm - N/A   Clear
4:35 AM 26.6 °F - 24.8 °F 93% 30.39 in 10.0 mi Calm Calm - N/A   Clear
4:55 AM 26.6 °F - 23.0 °F 86% 30.39 in 10.0 mi Calm Calm - N/A   Clear
5:15 AM 26.6 °F - 24.8 °F 93% 30.39 in 10.0 mi Calm Calm - N/A   Clear
5:35 AM 26.6 °F - 24.8 °F 93% 30.40 in 10.0 mi Calm Calm - N/A   Clear
5:55 AM 26.6 °F - 23.0 °F 86% 30.40 in 10.0 mi Calm Calm - N/A   Clear
6:15 AM 26.6 °F - 23.0 °F 86% 30.39 in 10.0 mi Calm Calm - N/A   Clear
6:35 AM 26.6 °F - 23.0 °F 86% 30.39 in 10.0 mi Calm Calm - N/A   Clear
6:55 AM 26.6 °F - 23.0 °F 86% 30.40 in 10.0 mi Calm Calm - N/A   Clear
7:15 AM 26.6 °F - 23.0 °F 86% 30.39 in 10.0 mi Calm Calm - N/A   Clear
7:35 AM 26.6 °F - 24.8 °F 93% 30.39 in 10.0 mi Calm Calm - N/A   Clear
7:55 AM 26.6 °F - 24.8 °F 93% 30.39 in 10.0 mi Calm Calm - N/A   Clear
8:35 AM 32.0 °F - 28.4 °F 87% 30.40 in 10.0 mi Calm Calm - N/A   Clear
8:55 AM 33.8 °F - 30.2 °F 87% 30.40 in 10.0 mi Calm Calm - N/A   Clear
9:15 AM 35.6 °F - 30.2 °F 81% 30.40 in 10.0 mi Calm Calm - N/A   Clear
9:35 AM 37.4 °F - 32.0 °F 81% 30.40 in 10.0 mi Calm Calm - N/A   Clear
9:55 AM 37.4 °F 34.9 °F 32.0 °F 81% 30.38 in 10.0 mi East 3.5 mph - N/A   Clear
10:15 AM 41.0 °F - 32.0 °F 70% 30.38 in 10.0 mi Calm Calm - N/A   Clear
10:35 AM 42.8 °F - 32.0 °F 66% 30.39 in 10.0 mi Calm Calm - N/A   Clear
10:55 AM 44.6 °F - 32.0 °F 61% 30.37 in 10.0 mi Calm Calm - N/A   Clear
11:15 AM 50.0 °F - 32.0 °F 50% 30.36 in 10.0 mi Calm Calm - N/A   Clear
11:35 AM 51.8 °F - 33.8 °F 50% 30.36 in 10.0 mi WNW 3.5 mph - N/A   Clear
11:55 AM 51.8 °F - 33.8 °F 50% 30.34 in 10.0 mi Calm Calm - N/A   Clear
12:15 PM 51.8 °F - 33.8 °F 50% 30.32 in 10.0 mi Calm Calm - N/A   Clear
12:35 PM 51.8 °F - 33.8 °F 50% 30.32 in 10.0 mi West 3.5 mph - N/A   Clear
12:55 PM 53.6 °F - 35.6 °F 51% 30.32 in 10.0 mi Calm Calm - N/A   Clear
1:15 PM 53.6 °F - 33.8 °F 47% 30.31 in 10.0 mi NW 3.5 mph - N/A   Clear
1:35 PM 53.6 °F - 33.8 °F 47% 30.30 in 10.0 mi Calm Calm - N/A   Clear
1:55 PM 53.6 °F - 33.8 °F 47% 30.30 in 10.0 mi NW 3.5 mph - N/A   Clear
2:15 PM 55.4 °F - 32.0 °F 41% 30.29 in 10.0 mi North 3.5 mph - N/A   Clear
2:35 PM 55.4 °F - 32.0 °F 41% 30.29 in 10.0 mi Calm Calm - N/A   Clear
2:55 PM 55.4 °F - 32.0 °F 41% 30.28 in 10.0 mi NNE 3.5 mph - N/A   Clear
3:15 PM 55.4 °F - 32.0 °F 41% 30.28 in 10.0 mi Calm Calm - N/A   Clear
3:35 PM 53.6 °F - 32.0 °F 44% 30.28 in 10.0 mi NNE 3.5 mph - N/A   Clear
3:55 PM 53.6 °F - 32.0 °F 44% 30.28 in 10.0 mi Calm Calm - N/A   Clear
4:15 PM 53.6 °F - 32.0 °F 44% 30.28 in 10.0 mi Calm Calm - N/A   Clear
4:55 PM 51.8 °F - 32.0 °F 47% 30.27 in 10.0 mi Calm Calm - N/A   Clear
5:15 PM 50.0 °F - 32.0 °F 50% 30.27 in 10.0 mi Calm Calm - N/A   Clear
5:35 PM 44.6 °F - 32.0 °F 61% 30.26 in 10.0 mi Calm Calm - N/A   Clear
5:55 PM 44.6 °F - 32.0 °F 61% 30.26 in 10.0 mi Calm Calm - N/A   Clear
6:15 PM 42.8 °F - 32.0 °F 66% 30.26 in 10.0 mi Calm Calm - N/A   Clear
6:35 PM 41.0 °F - 32.0 °F 70% 30.26 in 10.0 mi Calm Calm - N/A   Clear
6:55 PM 39.2 °F - 32.0 °F 75% 30.26 in 10.0 mi Calm Calm - N/A   Clear
7:35 PM 39.2 °F - 32.0 °F 75% 30.26 in 10.0 mi Calm Calm - N/A   Clear
7:55 PM 37.4 °F - 32.0 °F 81% 30.24 in 10.0 mi Calm Calm - N/A   Clear
8:15 PM 35.6 °F - 32.0 °F 87% 30.25 in 10.0 mi Calm Calm - N/A   Clear
8:35 PM 35.6 °F - 32.0 °F 87% 30.24 in 10.0 mi Calm Calm - N/A   Clear
8:55 PM 37.4 °F - 32.0 °F 81% 30.24 in 10.0 mi Calm Calm - N/A   Clear
9:15 PM 37.4 °F - 32.0 °F 81% 30.24 in 10.0 mi Calm Calm - N/A   Clear
9:35 PM 35.6 °F - 32.0 °F 87% 30.24 in 10.0 mi Calm Calm - N/A   Clear
9:55 PM 33.8 °F - 32.0 °F 93% 30.24 in 10.0 mi Calm Calm - N/A   Clear
10:15 PM 33.8 °F 30.8 °F 30.2 °F 87% 30.23 in 10.0 mi East 3.5 mph - N/A   Clear
10:35 PM 32.0 °F - 30.2 °F 93% 30.23 in 10.0 mi Calm Calm - N/A   Clear
10:55 PM 33.8 °F - 30.2 °F 87% 30.23 in 10.0 mi Calm Calm - N/A   Clear
11:15 PM 33.8 °F - 32.0 °F 93% 30.22 in 10.0 mi Calm Calm - N/A   Clear
11:35 PM 33.8 °F - 30.2 °F 87% 30.22 in 10.0 mi Calm Calm - N/A   Clear
11:55 PM 33.8 °F - 30.2 °F 87% 30.21 in 10.0 mi Calm Calm - N/A   Clear